Location: Jackson Park
(37.2862°N, 79.9123°W)
Time: 11:29:21
(UTC+00:00)

Vanguard 1 - All Passes

Search period start: 15 May 2026 00:00
Search period end: 25 May 2026 00:00
Orbit: 654 x 3817 km, 34.2° (Epoch: 14 May)

Date Brightness Start Highest point End Pass type
(mag) Time Alt. Az. Time Alt. Az. Time Alt. Az.
15 May - 00:00:36 10° W 00:11:30 78° S 00:31:34 10° ESE daylight
15 May - 02:21:20 10° W 02:36:03 60° SSW 02:58:21 10° SE visible
15 May - 04:45:08 10° W 05:00:52 31° SW 05:19:21 10° SSE visible
15 May - 19:42:53 10° SSW 19:48:10 29° SE 19:56:23 10° E daylight
15 May - 22:00:21 10° WSW 22:08:14 71° SSE 22:23:22 10° E daylight
16 May - 00:19:53 10° W 00:31:07 75° S 00:51:29 10° ESE visible
16 May - 02:40:52 10° W 02:55:38 52° SSW 03:17:22 10° SE visible
16 May - 05:06:01 10° W 05:20:12 24° SW 05:36:23 10° S visible
16 May - 20:01:21 10° SW 20:07:01 39° SSE 20:16:27 10° E daylight
16 May - 22:19:29 10° WSW 22:27:38 76° S 22:43:21 10° E daylight
17 May - 00:39:11 10° W 00:50:43 71° SSW 01:11:17 10° ESE visible
17 May - 03:00:32 10° W 03:15:11 45° SSW 03:36:01 10° SSE visible
17 May - 05:27:58 10° WSW 05:39:32 18° SW 05:52:17 10° S visible
17 May - 20:20:05 10° SW 20:26:01 49° SSE 20:36:21 10° E daylight
17 May - 22:38:40 10° W 22:47:06 77° S 23:03:21 10° E daylight
18 May - 00:58:31 10° W 01:10:19 64° SSW 01:30:52 10° ESE visible
18 May - 03:20:25 10° W 03:34:42 37° SSW 03:54:17 10° SSE visible
18 May - 05:52:56 10° WSW 05:58:54 12° SW 06:05:09 10° SSW visible
18 May - 18:23:00 10° S 18:26:09 16° SE 18:30:02 10° ESE daylight
18 May - 20:39:00 10° WSW 20:45:08 59° SSE 20:56:13 10° E daylight
18 May - 22:57:53 10° W 23:06:35 76° S 23:23:19 10° ESE daylight
19 May - 01:17:53 10° W 01:29:54 57° SSW 01:50:13 10° SE visible
19 May - 03:40:39 10° W 03:54:12 30° SW 04:12:00 10° SSE visible
19 May - 18:40:50 10° SSW 18:44:54 23° SE 18:50:32 10° E daylight
19 May - 20:58:01 10° WSW 21:04:22 67° SSE 21:16:04 10° E daylight
19 May - 23:17:07 10° W 23:26:05 73° S 23:43:12 10° ESE daylight
20 May - 01:37:22 10° W 01:49:27 49° SSW 02:09:15 10° SE visible
20 May - 04:01:26 10° W 04:13:41 23° SW 04:29:01 10° S visible
20 May - 18:59:12 10° SSW 19:03:47 32° SSE 19:10:32 10° E daylight
20 May - 21:17:08 10° WSW 21:23:41 73° S 21:35:56 10° E daylight
20 May - 23:36:22 10° W 23:45:36 68° SSW 00:02:58 10° ESE daylight
21 May - 01:56:58 10° W 02:09:01 42° SSW 02:27:57 10° SSE visible
21 May - 04:23:21 10° WSW 04:33:12 17° SW 04:44:47 10° S visible
21 May - 19:17:54 10° SW 19:22:45 42° SSE 19:30:21 10° E daylight
21 May - 21:36:17 10° W 21:43:03 75° S 21:55:48 10° E daylight
21 May - 23:55:39 10° W 00:05:05 61° SSW 00:22:33 10° ESE daylight
22 May - 02:16:48 10° W 02:28:35 34° SSW 02:46:13 10° SSE visible
22 May - 04:49:04 10° SW 04:52:46 11° SW 04:56:40 10° SSW visible
22 May - 17:21:18 10° SSE 17:23:00 12° SE 17:24:51 10° ESE daylight
22 May - 19:36:48 10° WSW 19:41:51 53° SSE 19:50:05 10° E daylight
22 May - 21:55:28 10° W 22:02:26 74° S 22:15:39 10° ESE daylight
23 May - 00:14:58 10° W 00:24:36 53° SSW 00:41:54 10° SE daylight
23 May - 02:36:59 10° W 02:48:08 27° SSW 03:03:55 10° SSE visible
23 May - 17:38:39 10° S 17:41:52 19° SE 17:45:41 10° ESE daylight
23 May - 19:55:49 10° WSW 20:01:02 62° SSE 20:09:47 10° E daylight
23 May - 22:14:40 10° W 22:21:50 70° S 22:35:27 10° ESE daylight
24 May - 00:34:25 10° W 00:44:07 45° SSW 01:00:56 10° SE visible
24 May - 02:57:49 10° WSW 03:07:44 20° SW 03:20:48 10° S visible
24 May - 17:56:57 10° SSW 18:00:48 27° SSE 18:05:40 10° E daylight
24 May - 20:14:55 10° WSW 20:20:17 69° S 20:29:30 10° E daylight
24 May - 22:33:54 10° W 22:41:15 63° SSW 22:55:07 10° ESE daylight
